[[{"header":{"parameterUnit":"m.s-1","parameterCategory":1,"la1":30.2991,"la2":30.254,"lo1":-89.0895,"lo2":-89.0444,"dy":0.0017,"dx":0.0017,"nx":28,"ny":28,"refTime":"2025-12-28T03:00:00:Z","depth":0,"parameterNumber":2,"parameterNumberName":"U-component_of_WINDS"},"data":[0,0,0,0,0,0,0,0,0,0,0,0,0,0,0,0,0,0,0,0,0,0,0,0,0,0,0,0,0,0,0,0,0,0,0,0,0,0,0,0,0,0,0,0,0,0,0,0,0,0,0,0,0,0,0,0,0,0,1.5998,1.5998,0,1.6029,1.6029,1.6029,1.603,1.603,1.6029,1.6029,1.6059,1.6061,1.6062,0,0,0,0,0,0,0,0,0,0,0,0,0,1.5941,1.5942,1.5998,1.5998,1.5999,1.6029,1.6029,1.6029,1.603,1.603,1.6029,1.6029,1.6059,1.606,1.6062,0,0,0,0,0,0,0,0,0,0,0,0,0,1.5968,1.5942,1.5998,1.6003,1.6004,1.6028,1.6029,1.603,1.603,1.603,1.6029,1.6029,1.6059,1.606,1.6062,1.6084,0,0,1.6067,1.6068,0,0,0,0,0,0,0,0,1.5967,1.597,1.6002,1.6003,1.6003,1.6025,1.602,1.6048,1.603,1.602,1.6029,1.6028,1.6048,1.6051,1.6058,1.6085,1.6086,1.6067,1.6068,1.6069,1.607,0,0,0,0,0,0,0,1.5965,1.5969,1.601,1.6002,1.6003,1.6004,1.6007,1.6025,1.6037,1.6021,1.6021,1.6025,1.6049,1.6056,1.6059,1.6087,1.6067,1.6069,1.607,1.6071,1.6135,1.6136,0,0,0,0,0,0,1.5962,1.5967,1.6009,1.6011,1.5983,1.6005,1.6009,1.6019,1.6037,1.6039,1.6025,1.6025,1.6053,1.6057,1.606,1.6087,1.6069,1.6071,1.6072,1.6134,1.6135,1.6136,0,0,0,0,0,0,1.5961,1.5966,1.6008,1.5989,1.5995,1.6007,1.6018,1.602,1.6027,1.604,1.6042,1.6031,1.6053,1.6057,1.6078,1.6088,1.6072,1.6073,1.6133,1.6134,1.6135,1.6141,0,0,0,0,0,0,1.5959,1.5965,1.5973,1.5989,1.5996,1.6026,1.6018,1.6021,1.603,1.603,1.6046,1.6048,1.6053,1.6075,1.608,1.609,1.6075,1.6133,1.6134,1.6135,1.614,1.6142,1.6144,0,0,0,0,0,1.5957,1.5973,1.5974,1.5979,1.6006,1.6026,1.603,1.6036,1.6031,1.6039,1.6048,1.6047,1.6086,1.6078,1.6082,1.6093,1.6132,1.6134,1.6135,1.6139,1.6141,1.6144,0,0,0,0,0,0,1.5957,1.5975,1.5976,1.5998,1.6011,1.6026,1.6037,1.6038,1.6052,1.6051,1.6058,1.6062,1.6083,1.609,1.608,1.6116,1.6109,1.6111,1.611,1.6112,1.6114,1.6112,1.6076,0,0,0,0,0,1.596,1.5974,1.599,1.6008,1.6014,1.6025,1.6033,1.6037,1.6051,1.6056,1.6066,1.6079,1.6094,1.6104,1.6118,1.6141,1.6145,1.6151,1.6153,1.6155,1.6157,1.617,1.6173,1.6141,1.6141,1.6141,0,0,1.5965,1.5977,1.5986,1.6008,1.6018,1.6034,1.6029,1.6045,1.6057,1.6058,1.6078,1.6087,1.6102,1.6124,1.6134,1.6131,1.6167,1.6157,1.6158,1.6159,1.6172,1.6175,1.6178,1.6142,1.6142,1.6141,0,0,1.5982,1.5993,1.6009,1.602,1.6036,1.6043,1.6047,1.6064,1.6069,1.609,1.6092,1.6106,1.6132,1.6143,1.6151,1.6175,1.6175,1.618,1.619,1.6203,1.6205,1.6207,1.6216,1.6219,1.6182,1.6182,1.6182,0,1.5987,1.601,1.6017,1.6034,1.6044,1.6047,1.6064,1.6074,1.6094,1.6101,1.6097,1.6131,1.6141,1.6166,1.6172,1.6179,1.6184,1.6178,1.6204,1.6207,1.6209,1.6217,1.622,1.6183,1.6183,1.6182,1.6182,0,1.6015,1.6031,1.6043,1.6062,1.6074,1.609,1.6101,1.6111,1.6115,1.6123,1.6145,1.6157,1.6175,1.6182,1.6185,1.6208,1.6205,1.6203,1.6195,1.6212,1.622,1.6223,1.6183,1.6183,1.6183,1.6183,0,0,1.6031,1.6056,1.606,1.607,1.6089,1.6101,1.6119,1.6137,1.6146,1.616,1.6175,1.6198,1.6197,1.6207,1.6212,1.6223,1.6242,1.622,1.622,1.6223,1.6268,1.6269,1.6273,1.6243,1.6243,1.6244,1.6267,0,1.6051,1.6081,1.6089,1.6115,1.6131,1.6135,1.6151,1.6164,1.6172,1.6187,1.6196,1.6212,1.6209,1.6215,1.6227,1.6237,1.6251,1.6236,1.6256,1.6257,1.6251,1.6277,1.6278,1.6299,1.627,1.6271,1.6271,0,1.6076,1.6092,1.612,1.6138,1.6145,1.6158,1.6176,1.619,1.6206,1.6211,1.6224,1.6228,1.6246,1.6239,1.6265,1.6255,1.6264,1.627,1.6271,1.6273,1.6264,1.6278,1.6306,1.6308,1.6276,1.6275,1.6275,0,1.6085,1.6113,1.6134,1.6142,1.6164,1.6173,1.6183,1.6198,1.6209,1.6225,1.6232,1.6249,1.6259,1.6273,1.6282,1.6276,1.6307,1.6301,1.6312,1.6312,1.6318,1.6317,1.6346,1.6325,1.6325,1.6325,1.6325,0,1.6106,1.6122,1.6138,1.6151,1.617,1.618,1.6199,1.6209,1.6223,1.6237,1.6243,1.6256,1.6268,1.6283,1.6291,1.6311,1.6316,1.6321,1.6322,1.632,1.6319,1.6325,1.6324,1.6326,1.6325,1.6325,1.6325,0,1.6118,1.613,1.6152,1.6171,1.6177,1.619,1.6207,1.6219,1.6229,1.6247,1.6252,1.6267,1.6286,1.6296,1.632,1.6325,1.6348,1.6349,1.6342,1.6343,1.6354,1.6352,1.6387,1.6392,1.6368,1.6368,1.6369,0,1.613,1.6143,1.6164,1.6174,1.6184,1.6201,1.6212,1.6223,1.6235,1.6255,1.6265,1.6284,1.63,1.633,1.6343,1.6361,1.6362,1.6373,1.6365,1.6362,1.6362,1.6361,1.6362,1.6374,1.6375,1.6375,1.6375,0,1.6149,1.6154,1.6171,1.6189,1.6203,1.6218,1.6233,1.6242,1.6255,1.6268,1.6288,1.63,1.6325,1.6344,1.6364,1.6374,1.6377,1.6378,1.6381,1.6378,1.6374,1.6376,1.6346,1.6376,1.6376,1.6376,1.6376,1.6376,1.6161,1.6173,1.619,1.6209,1.6222,1.6236,1.6249,1.6261,1.6277,1.6298,1.6304,1.6324,1.6341,1.6368,1.6379,1.6396,1.6394,1.6399,1.64,1.6401,1.6401,1.6372,1.6399,1.6399,1.6399,1.6399,1.6399,0,1.618,1.6192,1.6209,1.623,1.6245,1.6248,1.6265,1.6277,1.6295,1.6311,1.6327,1.635,1.6369,1.6384,1.6404,1.6414,1.6416,1.6419,1.6418,1.642,1.6402,1.6397,1.6417,1.6417,1.6417,1.6417,1.6417,1.6417,1.6192,1.6213,1.6221,1.6249,1.6261,1.6281,1.6291,1.6304,1.6317,1.6343,1.6359,1.6369,1.6385,1.6406,1.6424,1.6428,1.6434,1.6437,1.6441,1.6423,1.6421,1.6419,1.6415,1.6439,1.6439,1.6458,1.6458,1.6458]},{"header":{"parameterUnit":"m.s-1","parameterCategory":1,"la1":30.2991,"la2":30.254,"lo1":-89.0895,"lo2":-89.0444,"dy":0.0017,"dx":0.0017,"nx":28,"ny":28,"refTime":"2025-12-28T03:00:00:Z","depth":0,"parameterNumber":3,"parameterNumberName":"V-component_of_WINDS"},"data":[0,0,0,0,0,0,0,0,0,0,0,0,0,0,0,0,0,0,0,0,0,0,0,0,0,0,0,0,0,0,0,0,0,0,0,0,0,0,0,0,0,0,0,0,0,0,0,0,0,0,0,0,0,0,0,0,0,0,-7.5242,-7.5244,0,-7.543,-7.5433,-7.5435,-7.5365,-7.536,-7.5356,-7.5352,-7.5541,-7.555,-7.5559,0,0,0,0,0,0,0,0,0,0,0,0,0,-7.4817,-7.4825,-7.5242,-7.5244,-7.5246,-7.543,-7.5433,-7.5435,-7.5365,-7.536,-7.5355,-7.535,-7.5538,-7.5549,-7.5559,0,0,0,0,0,0,0,0,0,0,0,0,0,-7.5003,-7.4828,-7.5241,-7.5234,-7.5235,-7.543,-7.5433,-7.5436,-7.5367,-7.536,-7.5354,-7.5348,-7.5534,-7.5548,-7.5561,-7.5773,0,0,-7.5602,-7.5608,0,0,0,0,0,0,0,0,-7.4993,-7.5019,-7.5233,-7.5235,-7.5236,-7.5368,-7.5352,-7.5549,-7.5368,-7.5317,-7.5352,-7.5345,-7.5488,-7.5505,-7.5554,-7.5782,-7.579,-7.5603,-7.5612,-7.5617,-7.5621,0,0,0,0,0,0,0,-7.498,-7.501,-7.5316,-7.5236,-7.5238,-7.522,-7.5239,-7.5389,-7.5436,-7.532,-7.5316,-7.5339,-7.5488,-7.5542,-7.5558,-7.5792,-7.5603,-7.5615,-7.5623,-7.5629,-7.6202,-7.6209,0,0,0,0,0,0,-7.4967,-7.5,-7.531,-7.5322,-7.5096,-7.5233,-7.5254,-7.5332,-7.5434,-7.5444,-7.5345,-7.5335,-7.5522,-7.5543,-7.5565,-7.582,-7.5617,-7.563,-7.5638,-7.6195,-7.6204,-7.6212,0,0,0,0,0,0,-7.4958,-7.4995,-7.5302,-7.516,-7.5198,-7.5247,-7.5334,-7.5339,-7.5393,-7.5452,-7.546,-7.5391,-7.5517,-7.5546,-7.5722,-7.5825,-7.5636,-7.5648,-7.6187,-7.6198,-7.6208,-7.6331,0,0,0,0,0,0,-7.4946,-7.4992,-7.5074,-7.5162,-7.5205,-7.5458,-7.5341,-7.5347,-7.5417,-7.5406,-7.5498,-7.5507,-7.5515,-7.5702,-7.5735,-7.584,-7.5659,-7.6178,-7.6192,-7.6204,-7.6318,-7.6345,-7.6368,0,0,0,0,0,-7.4931,-7.51,-7.5079,-7.5117,-7.5309,-7.5464,-7.5489,-7.5495,-7.5425,-7.5507,-7.5546,-7.5504,-7.5808,-7.5721,-7.5757,-7.5868,-7.6171,-7.6188,-7.6203,-7.6307,-7.634,-7.6367,0,0,0,0,0,0,-7.5022,-7.5112,-7.5089,-7.5292,-7.5371,-7.5452,-7.5556,-7.553,-7.5629,-7.5615,-7.5618,-7.5639,-7.5821,-7.5862,-7.5762,-7.6078,-7.5979,-7.6003,-7.6045,-7.6077,-7.6101,-7.6087,-7.567,0,0,0,0,0,-7.5066,-7.5186,-7.5257,-7.5429,-7.5471,-7.5507,-7.5575,-7.5573,-7.5655,-7.5687,-7.5738,-7.5818,-7.5931,-7.6006,-7.6114,-7.6323,-7.6342,-7.6418,-7.6442,-7.6462,-7.6483,-7.6597,-7.6632,-7.6264,-7.6264,-7.6264,0,0,-7.5157,-7.5221,-7.5297,-7.5449,-7.5511,-7.5634,-7.5536,-7.567,-7.5761,-7.5707,-7.5877,-7.5918,-7.6006,-7.62,-7.6288,-7.624,-7.6589,-7.6483,-7.6498,-7.6509,-7.6617,-7.6652,-7.6683,-7.6275,-7.6273,-7.6272,0,0,-7.5387,-7.5448,-7.5599,-7.5662,-7.5757,-7.578,-7.5816,-7.5902,-7.5927,-7.6098,-7.606,-7.6167,-7.6363,-7.6428,-7.6487,-7.6741,-7.6707,-7.6776,-7.6906,-7.7017,-7.7046,-7.7071,-7.7162,-7.7195,-7.6797,-7.6797,-7.6797,0,-7.5489,-7.5674,-7.5679,-7.5817,-7.5885,-7.5844,-7.5996,-7.6056,-7.6181,-7.6228,-7.6173,-7.6418,-7.6474,-7.6683,-7.6745,-7.6794,-7.6835,-7.6766,-7.7041,-7.7067,-7.7091,-7.7178,-7.7212,-7.6805,-7.6804,-7.6803,-7.6802,0,-7.5795,-7.5924,-7.6034,-7.6157,-7.6237,-7.6381,-7.6406,-7.6487,-7.6478,-7.6507,-7.6681,-7.6748,-7.6868,-7.6917,-7.6909,-7.7125,-7.7093,-7.704,-7.694,-7.7134,-7.7216,-7.7249,-7.6816,-7.6813,-7.6811,-7.6809,0,0,-7.6088,-7.6212,-7.6252,-7.6308,-7.6409,-7.6508,-7.665,-7.6769,-7.6838,-7.6925,-7.7044,-7.721,-7.7162,-7.7228,-7.7227,-7.7325,-7.7523,-7.7259,-7.7261,-7.7306,-7.7765,-7.7804,-7.7843,-7.75,-7.7506,-7.7511,-7.7757,0,-7.6326,-7.6577,-7.6585,-7.6814,-7.6933,-7.6895,-7.7019,-7.7093,-7.7124,-7.7228,-7.726,-7.7379,-7.7306,-7.7346,-7.7441,-7.7479,-7.7615,-7.7461,-7.7609,-7.7615,-7.7589,-7.7886,-7.7928,-7.8157,-7.7789,-7.7795,-7.7798,0,-7.6638,-7.6737,-7.6978,-7.7063,-7.7113,-7.7224,-7.7334,-7.7435,-7.7518,-7.7533,-7.7608,-7.7592,-7.7736,-7.7631,-7.7829,-7.7724,-7.7785,-7.7813,-7.7822,-7.7836,-7.7719,-7.7909,-7.8231,-7.8265,-7.7849,-7.7845,-7.7841,0,-7.6828,-7.7021,-7.719,-7.7239,-7.7342,-7.7421,-7.7467,-7.7544,-7.7615,-7.7711,-7.7757,-7.7868,-7.7929,-7.8014,-7.8028,-7.7951,-7.8226,-7.8123,-7.8242,-7.8242,-7.8302,-7.8298,-7.8639,-7.8341,-7.834,-7.834,-7.8339,0,-7.7094,-7.7243,-7.7277,-7.7382,-7.7547,-7.7555,-7.7718,-7.7758,-7.7827,-7.7937,-7.791,-7.8014,-7.8026,-7.8133,-7.8145,-7.8307,-7.8334,-7.8349,-7.8351,-7.8353,-7.8351,-7.8393,-7.8377,-7.8349,-7.8347,-7.8345,-7.8343,0,-7.7335,-7.7364,-7.7546,-7.7629,-7.7653,-7.7772,-7.7841,-7.7941,-7.7968,-7.8108,-7.8141,-7.8184,-7.8308,-7.8331,-7.8477,-7.8484,-7.8678,-7.8663,-7.865,-7.8649,-7.8767,-7.8756,-7.9147,-7.9199,-7.8867,-7.887,-7.8872,0,-7.7503,-7.7617,-7.7713,-7.7785,-7.7836,-7.7953,-7.8027,-7.8038,-7.8115,-7.8219,-7.8305,-7.8427,-7.8525,-7.8725,-7.8768,-7.888,-7.8867,-7.8997,-7.8884,-7.8882,-7.887,-7.8863,-7.8875,-7.9019,-7.9022,-7.9025,-7.9027,0,-7.7799,-7.7807,-7.7915,-7.8028,-7.8116,-7.8205,-7.829,-7.835,-7.8372,-7.846,-7.8588,-7.8664,-7.8814,-7.8935,-7.9046,-7.9091,-7.9064,-7.9063,-7.9096,-7.9099,-7.9088,-7.9096,-7.871,-7.9054,-7.9051,-7.9049,-7.9048,-7.9047,-7.8009,-7.8108,-7.8192,-7.8312,-7.8377,-7.8456,-7.8554,-7.8594,-7.8701,-7.8826,-7.8825,-7.8965,-7.9045,-7.9191,-7.9244,-7.9353,-7.9311,-7.936,-7.9372,-7.9384,-7.9396,-7.907,-7.9373,-7.9372,-7.9371,-7.9371,-7.937,0,-7.8303,-7.8355,-7.8466,-7.8585,-7.868,-7.8647,-7.8738,-7.8819,-7.8943,-7.9021,-7.9119,-7.9265,-7.9382,-7.9435,-7.955,-7.9627,-7.9617,-7.9657,-7.9651,-7.9662,-7.9426,-7.9386,-7.9663,-7.9663,-7.9663,-7.9663,-7.9663,-7.9663,-7.8468,-7.8635,-7.8654,-7.8853,-7.8903,-7.9041,-7.9096,-7.9169,-7.9231,-7.9397,-7.9495,-7.9529,-7.9596,-7.9716,-7.9822,-7.9834,-7.9878,-7.9924,-7.993,-7.9709,-7.9679,-7.9651,-7.9613,-7.9933,-7.9934,-8.0158,-8.016,-8.0161]}]]